Zurück zum Katalog

CZ-6A DEB

AktivSSO
NORAD 54506·DEBRIS·🇨🇳 China

Gestartet Nov 11, 2022 von Taiyuan Satellite Launch Center

Loading…

Nächste Überflüge (nächste 24 Stunden)

TLE

AktuellSource: Space-Track

Epoche: Sep 14, 2026, 00:48 UTC

1 54506U 22151JJ  26257.03362041  .00001395  00000-0  62318-3 0  9993
2 54506  98.8774 287.8622 0098816 327.6604  31.8540 14.21790941198298

Verfolge CZ-6A DEB in Echtzeit mit AllMySat

Download on the App Store